Location: Old Brookville
(40.8320°N, 73.6049°W)
Time: 12:12:21
(UTC+00:00)

Daily predictions for brighter satellites

Satellite Brightness Start Highest point End
(mag) Time Altitude Azimuth Time Altitude Azimuth Time Altitude Azimuth
Cosmos 2297 4.2 22:46:59 10° S 22:52:12 40° ESE 22:57:26 10° NE
Centaur D AC-28 4.3 22:30:06 10° WSW 22:53:19 37° S 22:58:38 10° ESE
STARLINK-41 4.4 22:57:14 10° S 23:00:04 25° SE 23:02:57 10° ENE
ADEOS Rocket 4.1 22:53:30 10° NNE 23:00:36 38° E 23:07:39 10° SSE
YAOGAN 1 3.0 22:57:25 10° SE 23:01:26 39° ENE 23:05:29 10° N
Cosmos 2016 Rocket 4.2 22:59:01 10° SSE 23:04:46 46° E 23:10:33 10° NNE
STARLINK-33 3.8 23:02:14 10° SSW 23:05:15 35° SE 23:08:18 10° ENE
STARLINK-58 4.5 23:03:41 10° S 23:06:41 25° SE 23:09:37 10° ENE
STARLINK-80 4.4 23:03:24 10° WSW 23:07:04 43° NNW 23:10:44 10° NE
STARLINK-66 3.7 23:04:08 10° SSW 23:07:12 38° SE 23:10:15 10° ENE
SKYMED 2 3.6 23:03:28 10° NNE 23:07:51 90° WNW 23:12:11 10° SSW
STARLINK-46 3.2 23:05:41 10° WNW 23:07:54 42° SW 23:09:59 10° SSE
STARLINK-62 4.4 23:05:10 10° SSW 23:08:15 27° SE 23:11:11 11° ENE
STARLINK-55 3.6 23:05:47 10° SSW 23:08:53 41° SE 23:11:54 11° ENE
STARLINK-28 3.4 23:06:52 10° SSW 23:09:58 46° SE 23:12:57 11° ENE
STARLINK-34 4.3 23:07:19 10° SSW 23:10:24 28° SE 23:13:14 12° ENE
Cosmos 2369 Rocket 3.6 23:07:45 10° SE 23:11:05 16° E 23:14:25 10° ENE
Cosmos 1633 Rocket 4.2 23:09:55 10° SE 23:13:11 21° E 23:16:30 10° NE
Cosmos 1666 Rocket 4.5 23:10:37 10° SSE 23:14:24 28° E 23:18:13 10° NNE
Okean-O 3.5 23:14:12 10° S 23:18:33 55° W 23:22:55 10° NNW
Cosmos 2082 Rocket 2.2 23:13:47 10° NNW 23:19:27 89° ENE 23:25:07 10° SSE
Envisat 4.4 23:15:05 10° S 23:19:53 42° W 23:24:43 10° NNW
STARLINK-42 3.3 23:21:33 10° SSW 23:24:46 51° SE 23:27:06 17° ENE
Lacrosse 4 Rocket 1.3 23:21:43 10° SSW 23:25:50 72° ESE 23:30:06 10° NNE
ATLAS 5 CENTAUR R/B 4.2 23:20:21 10° NW 23:25:52 37° WSW 23:32:00 10° S
STARLINK-61 3.4 23:27:54 10° SW 23:31:46 76° SE 23:34:43 17° NE
HJ-1C 4.1 23:30:09 10° SE 23:33:05 30° ENE 23:36:01 10° N
Cosmos 1992 Rocket 4.2 23:28:02 10° SSW 23:33:16 76° WNW 23:38:32 10° NNE
Cosmos 2173 Rocket 4.4 23:27:06 10° SSW 23:33:26 71° W 23:39:50 10° N
Cosmos 2228 Rocket 4.1 23:30:16 10° NNW 23:34:39 51° W 23:39:03 10° SSW
CZ-2C R/B 4.4 23:32:20 14° ESE 23:35:50 23° ENE 23:40:16 10° NNE
Cosmos 1782 3.3 23:32:28 10° NNW 23:36:28 64° W 23:40:24 10° S
STARLINK-64 3.3 23:33:01 10° SW 23:36:33 60° SE 23:38:40 22° ENE
Cosmos 1833 Rocket 4.1 23:31:29 10° NW 23:36:45 41° WSW 23:41:59 10° S
Cosmos 1862 3.2 23:37:58 10° S 23:41:57 70° E 23:45:56 10° NNE
H-2A R/B 3.0 23:38:30 13° ESE 23:42:17 28° ENE 23:46:49 10° N
SL-4 R/B 2.8 23:39:27 10° NW 23:44:00 43° NNE 23:46:12 25° E
Cosmos 1354 Rocket 4.0 23:42:23 10° NNW 23:47:43 88° WSW 23:52:59 10° SSE
STARLINK-24 3.6 23:44:19 10° SW 23:48:15 58° SE 23:50:06 29° ENE
CSL-04 Rocket 3.9 23:44:45 10° S 23:50:18 75° WSW 23:55:50 10° NNW
NOSS 3-1 (C) 3.2 23:48:08 10° SSW 23:53:24 60° ESE 23:58:38 14° NE
Cosmos 1470 Rocket 4.2 23:50:17 10° SSE 23:54:07 32° E 23:55:22 27° ENE
Cosmos 1805 Rocket 4.5 23:51:01 10° SSW 23:55:18 50° W 23:59:34 10° N
STARLINK-81 3.5 23:51:47 10° SW 23:55:44 62° SE 23:57:12 35° ENE
